Volver al catálogo

STARLINK-31935

ActivoComunicacionesVLEO
NORAD 59876·PAYLOAD·🇺🇸 United States

Lanzado May 24, 2024 desde Cape Canaveral Space Force Station

Loading…

Próximos Pases (próximas 24 horas)

TLE

ActualizadoSource: CelesTrak SupGP

Época: Sep 14, 2026, 14:54 UTC

1 59876C 24098U   26257.62131944  .00039220  00000+0  14207-2 0  2578
2 59876  43.0001 291.2376 0001423 274.7112 247.9215 15.27554429    14

Sigue STARLINK-31935 en tiempo real con AllMySat

Download on the App Store